User: anonymous
Location: The Jewett Observatory
(46.7288°N, 117.1525°W)
Time: 17:34:17
(UTC-07:00)
Language:

Cosmos 1844 Rocket - Orbit

View from above orbital plane
View from above orbital plane
View from above satellite
View from above satellite

Ground track
Ground track

The orbit data is extracted from the following two-line orbital elements,

1 17974U 87041B   14208.91253351  .00000080  00000-0  63435-4 0  1650
2 17974 071.0108 333.0368 0014745 213.4594 285.4933 14.17107500407171
Epoch (UTC): 27 July 2014 21:54:02
Eccentricity: 0.0014745
inclination: 71.0108°
perigee height: 824 km
apogee height: 846 km
right ascension of ascending node: 333.0368°
argument of perigee: 213.4594°
revolutions per day: 14.17107500
mean anomaly at epoch: 285.4933°
orbit number at epoch: 40717

The dashed part of the orbit path shows where the satellite is in the earth's shadow,  

DLR